北斗三号 M5 (BEIDOU 3M5)

导读

BEIDOU-3 M4 是中国北斗三号全球卫星导航系统中的一颗中圆地球轨道(MEO)卫星,于2020年发射,用于增强系统的定位、导航和授时服务。该卫星采用高精度原子钟和先进信号技术,提升了系统在全球范围内的稳定性和精度。作为北斗三号星座的重要组成部分,M4 卫星在提升区域和全球服务能力方面发挥了关键作用,支持了交通运输、通信、农业等多个领域的应用。

基本信息
目录编号:
43207
目录名称:
BEIDOU 3M5
国际标识:
2018-018A
轨道中心:
EARTH
卫星名称:
北斗三号 M5
卫星全名:
北斗三号 M5 (BEIDOU 3M5)
卫星状态:
在轨 (已飞行3044 天)
发射日期:
2018-02-12 UTC
国别 :
中国 (CN)
星等 :
--
轨道信息
数据来源 国际轨道数据 AOE轨道数据
星历时间 2026-06-13T18:37:23+0800
23小时前
查看轨道信息
2026-06-10T20:00:00+0800
3天前
查看轨道信息
半长轴 27906.189km 27906.229km
偏心率 0.0007729 0.0007802
轨道倾角 56.647° 56.645°
近地点辐角 18.236° 18.248°
升交点赤经 63.273° 63.370°
平近点角 341.818° 168.932°
近地点 21506.483km 21506.319km
远地点 21549.621km 21549.865km
周期 773.233分钟 773.235分钟
每日圈数 1.86231 1.862306
详细信息
平衡模式:
三轴稳定
制造商(研发单位):
中国空间技术研究院
制造商所在国:
中国
使用方式:
暂无
工作目标:
为全球用户提供连续、稳定、可靠的北斗导航、定位服务
预期寿命:
12年
卫星简介
北斗卫星导航系统是中国着眼于国家安全和经济社会发展需要,自主建设运行的全球卫星导航系统,是为全球用户提供全天候、全天时、高精度的定位、导航和授时服务的国家重要时空基础设施。该卫星仍在工作。
2D轨道图
3D轨道图
轨道高度分析图
轨道倾角分析图
轨道综合分析图
查看轨道综合分析图